Location: Cran-Gévrier
(45.9039°N, 6.1012°E)
Time: 20:27:30
(UTC+00:00)

USA 81 - Pass Details

Date: 09 February 2023
Orbit: 784 x 788 km, 85.0° (Epoch: 19 March)

Event Time Altitude Azimuth Distance (km) Brightness Sun altitude
Rises 18:38:28 0° 188° (S) 3,267 7.4 -18.8°
Reaches altitude 10° 18:40:49 10° 191° (S) 2,343 6.6 -19.2°
Maximum altitude 18:46:04 74° 276° (W) 821 4.2 -20.1°
Drops below altitude 10° 18:51:22 10° 2° (N) 2,358 6.5 -21.1°
Sets 18:53:45 0° 4° (N) 3,290 7.2 -21.5°
